Overview Statistics Trail Chart Weather Telemetry Raw packets
 

This is the latest recevied weather packets stored in our database for station/object VK4TOM-13. If no packets are shown the sender has not sent any weather packets the latest 10 day(s).

<< 10 11 12 13 14 15 16 >>
Time Temp. Humidity Pressure Rain* Wind** Luminosity Snow
1788452948 15° C 70% 1020.4 hPa 0 mm - - -
1788452346 15.56° C 70% 1020.6 hPa 0 mm - - -
1788451745 15.56° C 70% 1020.5 hPa 0 mm - - -
1788450544 15.56° C 70% 1020.7 hPa 0 mm - - -
1788449942 15.56° C 70% 1020.8 hPa 0 mm - - -
1788449341 15.56° C 70% 1020.9 hPa 0 mm - - -
1788448740 16.11° C 70% 1020.9 hPa 0 mm - - -
1788448139 16.11° C 70% 1020.9 hPa 0 mm - - -
1788447538 16.11° C 70% 1021.1 hPa 0 mm - - -
1788446937 16.11° C 70% 1021.1 hPa 0 mm - - -
1788446336 16.67° C 70% 1021.2 hPa 0 mm - - -
1788445735 16.67° C 70% 1021.2 hPa 0 mm - - -
1788445134 16.67° C 70% 1021.2 hPa 0 mm - - -
1788444533 17.22° C 70% 1021.1 hPa 0 mm - - -
1788443932 17.22° C 70% 1020.9 hPa 0 mm - - -
1788443331 17.22° C 70% 1020.9 hPa 0 mm - - -
1788442729 17.22° C 70% 1020.8 hPa 0 mm - - -
1788442128 17.78° C 70% 1020.9 hPa 0 mm - - -
1788441527 17.78° C 70% 1021.1 hPa 0 mm - - -
1788440926 17.78° C 70% 1021.2 hPa 0 mm - - -
1788440325 18.33° C 70% 1021.3 hPa 0 mm - - -
1788439724 18.33° C 70% 1021.3 hPa 0 mm - - -
1788439123 18.33° C 70% 1021.5 hPa 0 mm - - -
1788438522 18.89° C 70% 1021.4 hPa 0 mm - - -
1788437945 19.44° C 70% 1021.5 hPa 0 mm - - -

* Rain since midnight (hover to see other rain measurements)
** Current wind speed in m/s (hover to see current wind gust speed)